Tracking 30995 objects as of 5-Jul-2025
HD Live streaming from Space Station
objects crossing your sky now

STARLINK-31810

Track STARLINK-31810 now!
10-day predictions
STARLINK-31810 is classified as:


NORAD ID: 59799
Int'l Code: 2024-093T
Perigee: 489.1 km
Apogee: 491.3 km
Inclination: 43.0 °
Period: 94.3 minutes
Semi major axis: 6861 km
RCS: Unknown
Launch date: May 18, 2024
Source: United States (US)
Launch site: AIR FORCE EASTERN TEST RANGE (AFETR)
Your satellite tracking list
Your tracking list is empty




NASA's NSSDC Master Catalog

Two Line Element Set (TLE):
1 59799U 24093T   25186.00871992  .00000686  00000-0  34466-4 0  9992
2 59799  43.0032 167.8548 0001617 272.2098  87.8569 15.27577494 64810
Source of the keplerian elements: AFSPC